Погода в Благовещенке

Россия / Алтайский край     52°50′02″N   79°52′07″E
темп.,
°C
ветер,
м/с
пор.,
м/с
влажн.,
%
обл.,
%
осадки,
мм/ч
давл.,
гПа
погр.,
м
26 февраля, пт
пт2601:00−22зюз8129199 0.1 1025930
04:00−25юз6129198 0.0 1028367
07:00−22зюз6129395 0.1 1032603
10:00−25юз7128997 0.0 1034400
13:00−22юз7118895 0.0 1036741
16:00−21юз71089100 0.1 1036710
19:00−23юз51091100 0.1 1038478
22:00−24юз599498 0.1 1039343
27 февраля, сб
сб2701:00−27юз489598 0.1 1039151
04:00−29ююз449686 0.0 103874
07:00−30ююз349480 0.0 103961
10:00−29ююз369254 0.0 1039137
13:00−25ююз469144 0.0 1039297
16:00−21ююз369039 0.0 1038476
19:00−24ю239669 0.0 103822
22:00−25ююз349281 0.0 103927
28 февраля, вс
вс2801:00−26ю349075 0.0 103831
04:00−27ююв448918 0.0 103746
07:00−26ююв448825 0.0 103553
10:00−22юв498885 0.0 1033229
13:00−14ююв6118193 0.0 1030438
16:00−9ю71289100 0.1 1026719
19:00−7ю71494100 0.8 1022814
22:00−5ю81595100 1.1 1019748
1 марта, пн
пн101:00−4ю101694100 2.7 1016694
04:00−3ю111894100 1.4 1013761
07:00−1ююз111796100 4.1 1011865
10:000юз111798100 2.8 1010831
13:00+1юз814100100 4.0 1011635
16:00+1юз813100100 0.3 1012622
19:00+1юз61299100 0.4 1011476
22:00+1юз61298100 0.2 1011485
2 марта, вт
вт201:000зюз10159799 0.6 1010783
04:00−6зюз7138976 0.1 1011421
07:00−7зюз7119286 0.2 1015528
10:00−8зюз6993100 0.1 1017478
13:00−10зюз5793100 0.2 1018401
16:00−9зюз4691100 0.1 1018427
19:00−12зюз2395100 0.1 101728
22:00−13зсз229599 0.0 101723